When you browse on this site, cookies collect data to enhance your experience and personalize the content and advertising you see.
Visit our Privacy Policy to learn more. By continuing to use the site, you agree to this use of cookies and data.
  • En España
  • Lista de países
  • Para 7 días
  • Temperatura del agua
  • El tiempo en el mapa
  • Informadores
  • user-avatar
    Iniciar sesión

    Tiempo cada hora Vyazgino

    Hoy, 7 Junio, Domingo

    Tiempo Temperatura Precipitaciones Viento Presión Humedad
    00:00 +15°C° 0 mm 1 mps 742 mmHg 94%
    01:00 +15°C° 0 mm 1 mps 743 mmHg 94%
    02:00 +14°C° 0 mm 1 mps 743 mmHg 94%
    03:00 +14°C° 0 mm 1 mps 744 mmHg 94%
    04:00 +14°C° 0 mm 0 mps 744 mmHg 93%
    05:00 +14°C° 0 mm 0 mps 744 mmHg 92%
    06:00 +16°C° 0 mm 0 mps 745 mmHg 88%
    07:00 +20°C° 0 mm 1 mps 745 mmHg 83%
    08:00 +22°C° 0 mm 1 mps 745 mmHg 78%
    09:00 +23°C° 0 mm 1 mps 745 mmHg 71%
    10:00 +24°C° 0 mm 1 mps 745 mmHg 64%
    11:00 +26°C° 0 mm 1 mps 746 mmHg 57%
    12:00 +26°C° 0 mm 2 mps 746 mmHg 56%
    13:00 +26°C° 0 mm 2 mps 746 mmHg 55%
    14:00 +27°C° 0 mm 2 mps 746 mmHg 54%
    15:00 +26°C° 0 mm 2 mps 745 mmHg 58%
    16:00 +26°C° 0 mm 2 mps 745 mmHg 62%
    17:00 +26°C° 0 mm 2 mps 744 mmHg 65%
    18:00 +24°C° 0 mm 2 mps 744 mmHg 71%
    19:00 +23°C° 0 mm 2 mps 744 mmHg 77%
    20:00 +21°C° 0 mm 1 mps 745 mmHg 82%
    21:00 +20°C° 0 mm 2 mps 744 mmHg 84%
    22:00 +19°C° 0 mm 2 mps 744 mmHg 86%
    23:00 +18°C° 0 mm 2 mps 744 mmHg 87%

    Mañana, 8 Junio, Lunes

    Tiempo Temperatura Precipitaciones Viento Presión Humedad
    00:00 +18°C° 0.1 mm 2 mps 745 mmHg 90%
    01:00 +17°C° 0.1 mm 2 mps 745 mmHg 92%
    02:00 +17°C° 0.1 mm 2 mps 745 mmHg 95%
    03:00 +18°C° 0 mm 2 mps 745 mmHg 95%
    04:00 +18°C° 0 mm 2 mps 744 mmHg 95%
    05:00 +18°C° 0 mm 2 mps 744 mmHg 95%
    06:00 +20°C° 0 mm 2 mps 744 mmHg 91%
    07:00 +21°C° 0 mm 2 mps 745 mmHg 86%
    08:00 +24°C° 0 mm 2 mps 745 mmHg 82%
    09:00 +25°C° 0 mm 3 mps 745 mmHg 76%
    10:00 +26°C° 0 mm 3 mps 745 mmHg 71%
    11:00 +27°C° 0 mm 3 mps 745 mmHg 66%
    12:00 +28°C° 0 mm 3 mps 745 mmHg 64%
    13:00 +28°C° 0 mm 3 mps 745 mmHg 63%
    14:00 +28°C° 0 mm 3 mps 745 mmHg 61%
    15:00 +28°C° 0 mm 3 mps 744 mmHg 63%
    16:00 +28°C° 0 mm 3 mps 744 mmHg 65%
    17:00 +27°C° 0 mm 2 mps 744 mmHg 67%
    18:00 +26°C° 0 mm 2 mps 744 mmHg 74%
    19:00 +24°C° 0 mm 2 mps 744 mmHg 80%
    20:00 +22°C° 0 mm 1 mps 744 mmHg 87%
    21:00 +21°C° 0 mm 1 mps 744 mmHg 88%
    22:00 +21°C° 0 mm 1 mps 744 mmHg 89%
    23:00 +20°C° 0 mm 1 mps 745 mmHg 91%

    Pasado mañana, 9 Junio, Martes

    Tiempo Temperatura Precipitaciones Viento Presión Humedad
    00:00 +20°C° 0 mm 1 mps 745 mmHg 92%
    01:00 +19°C° 0 mm 1 mps 745 mmHg 93%
    02:00 +19°C° 0 mm 1 mps 745 mmHg 94%
    03:00 +19°C° 0 mm 1 mps 745 mmHg 93%
    04:00 +20°C° 0 mm 1 mps 745 mmHg 93%
    05:00 +19°C° 0 mm 2 mps 745 mmHg 92%
    06:00 +21°C° 0 mm 2 mps 745 mmHg 87%
    07:00 +23°C° 0 mm 2 mps 745 mmHg 82%
    08:00 +25°C° 0 mm 2 mps 745 mmHg 77%
    09:00 +26°C° 0.3 mm 2 mps 746 mmHg 74%
    10:00 +27°C° 0.3 mm 2 mps 746 mmHg 70%
    11:00 +28°C° 0.3 mm 3 mps 746 mmHg 67%
    12:00 +28°C° 0.2 mm 3 mps 746 mmHg 66%
    13:00 +28°C° 0.2 mm 3 mps 746 mmHg 66%
    14:00 +29°C° 0.2 mm 3 mps 745 mmHg 65%
    15:00 +28°C° 0.1 mm 2 mps 745 mmHg 65%
    16:00 +28°C° 0.1 mm 2 mps 745 mmHg 66%
    17:00 +28°C° 0.1 mm 1 mps 745 mmHg 66%
    18:00 +26°C° 0.1 mm 1 mps 745 mmHg 72%
    19:00 +25°C° 0.1 mm 1 mps 745 mmHg 78%
    20:00 +23°C° 0.1 mm 1 mps 745 mmHg 84%
    21:00 +22°C° 0 mm 1 mps 745 mmHg 86%
    22:00 +21°C° 0 mm 1 mps 745 mmHg 88%
    23:00 +21°C° 0 mm 1 mps 746 mmHg 90%

    10 Junio, Miércoles

    Tiempo Temperatura Precipitaciones Viento Presión Humedad
    00:00 +20°C° 0 mm 1 mps 746 mmHg 91%
    01:00 +20°C° 0 mm 1 mps 746 mmHg 92%
    02:00 +19°C° 0 mm 1 mps 746 mmHg 93%
    03:00 +20°C° 0 mm 1 mps 746 mmHg 93%
    04:00 +20°C° 0 mm 1 mps 746 mmHg 93%
    05:00 +21°C° 0 mm 1 mps 746 mmHg 92%
    06:00 +22°C° 0 mm 1 mps 746 mmHg 86%
    07:00 +24°C° 0 mm 1 mps 746 mmHg 81%
    08:00 +26°C° 0 mm 2 mps 746 mmHg 75%
    09:00 +27°C° 0.1 mm 2 mps 746 mmHg 70%
    10:00 +28°C° 0.1 mm 2 mps 746 mmHg 66%
    11:00 +29°C° 0.1 mm 3 mps 746 mmHg 61%
    12:00 +29°C° 0 mm 3 mps 746 mmHg 59%
    13:00 +29°C° 0 mm 3 mps 745 mmHg 58%
    14:00 +30°C° 0 mm 3 mps 745 mmHg 56%
    15:00 +29°C° 0 mm 2 mps 745 mmHg 59%
    16:00 +29°C° 0 mm 2 mps 745 mmHg 62%
    17:00 +29°C° 0 mm 2 mps 745 mmHg 65%
    18:00 +27°C° 0 mm 2 mps 745 mmHg 71%
    19:00 +25°C° 0 mm 2 mps 745 mmHg 76%
    20:00 +24°C° 0 mm 1 mps 745 mmHg 82%
    21:00 +23°C° 0 mm 2 mps 745 mmHg 85%
    22:00 +21°C° 0 mm 2 mps 745 mmHg 88%
    23:00 +20°C° 0 mm 2 mps 745 mmHg 91%

    11 Junio, Jueves

    Tiempo Temperatura Precipitaciones Viento Presión Humedad
    00:00 +20°C° 0 mm 2 mps 745 mmHg 92%
    01:00 +19°C° 0 mm 2 mps 745 mmHg 94%
    02:00 +19°C° 0 mm 2 mps 745 mmHg 95%
    03:00 +19°C° 0 mm 2 mps 745 mmHg 94%
    04:00 +20°C° 0 mm 2 mps 745 mmHg 93%
    05:00 +20°C° 0 mm 2 mps 745 mmHg 93%
    06:00 +23°C° 0 mm 2 mps 745 mmHg 88%
    07:00 +24°C° 0 mm 2 mps 745 mmHg 83%
    08:00 +26°C° 0 mm 2 mps 745 mmHg 78%
    09:00 +27°C° 0 mm 2 mps 745 mmHg 73%
    10:00 +28°C° 0 mm 3 mps 745 mmHg 68%
    11:00 +29°C° 0 mm 3 mps 745 mmHg 64%
    12:00 +29°C° 0.1 mm 3 mps 745 mmHg 62%
    13:00 +30°C° 0.1 mm 3 mps 745 mmHg 60%
    14:00 +30°C° 0.1 mm 2 mps 744 mmHg 58%
    15:00 +30°C° 0.1 mm 2 mps 744 mmHg 61%
    16:00 +29°C° 0.1 mm 2 mps 744 mmHg 64%
    17:00 +29°C° 0.1 mm 2 mps 744 mmHg 67%
    18:00 +27°C° 0.2 mm 2 mps 744 mmHg 73%
    19:00 +26°C° 0.2 mm 2 mps 744 mmHg 80%
    20:00 +24°C° 0.2 mm 2 mps 744 mmHg 87%
    21:00 +23°C° 0 mm 2 mps 744 mmHg 89%
    22:00 +23°C° 0 mm 2 mps 744 mmHg 92%
    23:00 +21°C° 0 mm 2 mps 744 mmHg 94%

    12 Junio, Viernes

    Tiempo Temperatura Precipitaciones Viento Presión Humedad
    00:00 +20°C° 0.1 mm 2 mps 744 mmHg 95%
    01:00 +21°C° 0.1 mm 1 mps 744 mmHg 95%
    02:00 +21°C° 0.1 mm 1 mps 743 mmHg 96%
    03:00 +21°C° 0 mm 1 mps 743 mmHg 96%
    04:00 +21°C° 0 mm 1 mps 743 mmHg 96%
    05:00 +21°C° 0 mm 1 mps 743 mmHg 96%
    06:00 +23°C° 0 mm 1 mps 743 mmHg 90%
    07:00 +25°C° 0 mm 1 mps 743 mmHg 84%
    08:00 +26°C° 0 mm 2 mps 743 mmHg 79%
    09:00 +27°C° 0 mm 2 mps 743 mmHg 72%
    10:00 +28°C° 0 mm 2 mps 743 mmHg 65%
    11:00 +30°C° 0 mm 2 mps 743 mmHg 58%
    12:00 +30°C° 0 mm 2 mps 743 mmHg 56%
    13:00 +30°C° 0 mm 2 mps 743 mmHg 55%
    14:00 +31°C° 0 mm 2 mps 743 mmHg 53%
    15:00 +30°C° 0 mm 2 mps 742 mmHg 55%
    16:00 +30°C° 0 mm 1 mps 742 mmHg 58%
    17:00 +30°C° 0 mm 1 mps 742 mmHg 60%
    18:00 +28°C° 0 mm 1 mps 742 mmHg 66%
    19:00 +26°C° 0 mm 1 mps 742 mmHg 72%
    20:00 +22°C° 0 mm 0 mps 742 mmHg 78%
    21:00 +21°C° 0.1 mm 0 mps 742 mmHg 80%
    22:00 +20°C° 0.1 mm 0 mps 742 mmHg 82%
    23:00 +19°C° 0.1 mm 0 mps 742 mmHg 84%
    Mostrar más